When you browse on this site, cookies collect data to enhance your experience and personalize the content and advertising you see.
Visit our Privacy Policy to learn more. By continuing to use the site, you agree to this use of cookies and data.
  • En España
  • Lista de países
  • Para 7 días
  • Temperatura del agua
  • El tiempo en el mapa
  • Informadores
  • user-avatar
    Iniciar sesión

    Tiempo cada hora Wroclaw

    Hoy, 4 Junio, Jueves

    Tiempo Temperatura Precipitaciones Viento Presión Humedad
    00:00 +10°C° 0 mm 2 mps 742 mmHg 81%
    01:00 +10°C° 0 mm 2 mps 741 mmHg 83%
    02:00 +10°C° 0 mm 2 mps 741 mmHg 85%
    03:00 +9°C° 0 mm 2 mps 741 mmHg 86%
    04:00 +9°C° 0 mm 2 mps 740 mmHg 88%
    05:00 +12°C° 0 mm 2 mps 740 mmHg 84%
    06:00 +12°C° 0 mm 3 mps 740 mmHg 80%
    07:00 +14°C° 0 mm 3 mps 739 mmHg 75%
    08:00 +17°C° 0 mm 3 mps 739 mmHg 71%
    09:00 +18°C° 0 mm 4 mps 739 mmHg 66%
    10:00 +20°C° 0 mm 4 mps 739 mmHg 62%
    11:00 +21°C° 0 mm 4 mps 738 mmHg 60%
    12:00 +21°C° 0 mm 4 mps 738 mmHg 58%
    13:00 +22°C° 0 mm 4 mps 738 mmHg 57%
    14:00 +22°C° 0.6 mm 3 mps 737 mmHg 62%
    15:00 +21°C° 0.6 mm 3 mps 737 mmHg 68%
    16:00 +21°C° 0.6 mm 3 mps 736 mmHg 73%
    17:00 +20°C° 0.2 mm 2 mps 736 mmHg 76%
    18:00 +19°C° 0.2 mm 2 mps 736 mmHg 79%
    19:00 +18°C° 0.2 mm 2 mps 735 mmHg 82%
    20:00 +18°C° 0 mm 2 mps 735 mmHg 84%
    21:00 +17°C° 0 mm 2 mps 735 mmHg 86%
    22:00 +16°C° 0 mm 3 mps 734 mmHg 87%
    23:00 +16°C° 0.2 mm 2 mps 734 mmHg 89%

    Mañana, 5 Junio, Viernes

    Tiempo Temperatura Precipitaciones Viento Presión Humedad
    00:00 +16°C° 0.2 mm 2 mps 734 mmHg 91%
    01:00 +15°C° 0.2 mm 2 mps 734 mmHg 93%
    02:00 +14°C° 0 mm 3 mps 734 mmHg 94%
    03:00 +14°C° 0 mm 3 mps 734 mmHg 94%
    04:00 +14°C° 0 mm 4 mps 734 mmHg 95%
    05:00 +14°C° 0.5 mm 4 mps 734 mmHg 95%
    06:00 +13°C° 0.5 mm 4 mps 735 mmHg 95%
    07:00 +13°C° 0.5 mm 5 mps 735 mmHg 95%
    08:00 +13°C° 0.6 mm 4 mps 736 mmHg 94%
    09:00 +13°C° 0.6 mm 4 mps 736 mmHg 93%
    10:00 +13°C° 0.6 mm 4 mps 737 mmHg 92%
    11:00 +13°C° 0.1 mm 3 mps 737 mmHg 90%
    12:00 +14°C° 0.1 mm 3 mps 737 mmHg 88%
    13:00 +15°C° 0.1 mm 2 mps 738 mmHg 85%
    14:00 +14°C° 0 mm 3 mps 738 mmHg 86%
    15:00 +14°C° 0 mm 3 mps 738 mmHg 86%
    16:00 +14°C° 0 mm 3 mps 738 mmHg 87%
    17:00 +14°C° 0 mm 4 mps 738 mmHg 88%
    18:00 +14°C° 0 mm 4 mps 738 mmHg 88%
    19:00 +14°C° 0 mm 4 mps 738 mmHg 89%
    20:00 +13°C° 0 mm 4 mps 738 mmHg 88%
    21:00 +13°C° 0 mm 4 mps 739 mmHg 88%
    22:00 +12°C° 0 mm 4 mps 739 mmHg 88%
    23:00 +12°C° 0 mm 4 mps 739 mmHg 87%

    Pasado mañana, 6 Junio, Sábado

    Tiempo Temperatura Precipitaciones Viento Presión Humedad
    00:00 +12°C° 0 mm 4 mps 739 mmHg 86%
    01:00 +12°C° 0 mm 5 mps 740 mmHg 85%
    02:00 +12°C° 0 mm 5 mps 740 mmHg 83%
    03:00 +12°C° 0 mm 5 mps 740 mmHg 82%
    04:00 +12°C° 0 mm 5 mps 741 mmHg 81%
    05:00 +13°C° 0 mm 6 mps 741 mmHg 77%
    06:00 +14°C° 0 mm 6 mps 742 mmHg 73%
    07:00 +15°C° 0 mm 7 mps 742 mmHg 69%
    08:00 +16°C° 0 mm 7 mps 743 mmHg 66%
    09:00 +16°C° 0 mm 7 mps 743 mmHg 64%
    10:00 +17°C° 0 mm 7 mps 743 mmHg 61%
    11:00 +17°C° 0 mm 6 mps 744 mmHg 65%
    12:00 +16°C° 0 mm 5 mps 744 mmHg 69%
    13:00 +15°C° 0 mm 4 mps 744 mmHg 73%
    14:00 +15°C° 0.1 mm 4 mps 744 mmHg 77%
    15:00 +15°C° 0.1 mm 4 mps 744 mmHg 81%
    16:00 +15°C° 0.1 mm 4 mps 744 mmHg 85%
    17:00 +16°C° 0 mm 3 mps 744 mmHg 84%
    18:00 +16°C° 0 mm 3 mps 744 mmHg 83%
    19:00 +16°C° 0 mm 2 mps 744 mmHg 82%
    20:00 +16°C° 0.2 mm 2 mps 744 mmHg 83%
    21:00 +16°C° 0.2 mm 2 mps 744 mmHg 84%
    22:00 +16°C° 0.2 mm 3 mps 745 mmHg 85%
    23:00 +15°C° 1.3 mm 2 mps 745 mmHg 89%

    7 Junio, Domingo

    Tiempo Temperatura Precipitaciones Viento Presión Humedad
    00:00 +14°C° 1.3 mm 2 mps 745 mmHg 92%
    01:00 +14°C° 1.3 mm 1 mps 745 mmHg 96%
    02:00 +14°C° 1.3 mm 1 mps 744 mmHg 96%
    03:00 +13°C° 1.3 mm 1 mps 744 mmHg 96%
    04:00 +13°C° 1.3 mm 1 mps 744 mmHg 97%
    05:00 +14°C° 1.8 mm 1 mps 745 mmHg 96%
    06:00 +14°C° 1.8 mm 1 mps 745 mmHg 95%
    07:00 +14°C° 1.8 mm 1 mps 745 mmHg 94%
    08:00 +16°C° 0 mm 1 mps 746 mmHg 88%
    09:00 +18°C° 0 mm 1 mps 746 mmHg 82%
    10:00 +19°C° 0 mm 1 mps 746 mmHg 76%
    11:00 +20°C° 0.2 mm 1 mps 746 mmHg 73%
    12:00 +21°C° 0.2 mm 1 mps 746 mmHg 70%
    13:00 +21°C° 0.2 mm 2 mps 746 mmHg 67%
    14:00 +21°C° 0.5 mm 2 mps 746 mmHg 69%
    15:00 +20°C° 0.5 mm 2 mps 746 mmHg 70%
    16:00 +20°C° 0.5 mm 2 mps 747 mmHg 71%
    17:00 +19°C° 0.2 mm 2 mps 747 mmHg 74%
    18:00 +18°C° 0.2 mm 2 mps 747 mmHg 76%
    19:00 +17°C° 0.2 mm 2 mps 747 mmHg 78%
    20:00 +16°C° 0 mm 1 mps 747 mmHg 77%
    21:00 +16°C° 0 mm 1 mps 748 mmHg 75%
    22:00 +15°C° 0 mm 1 mps 748 mmHg 74%
    23:00 +14°C° 0 mm 1 mps 748 mmHg 74%

    8 Junio, Lunes

    Tiempo Temperatura Precipitaciones Viento Presión Humedad
    00:00 +14°C° 0 mm 2 mps 748 mmHg 74%
    01:00 +14°C° 0 mm 2 mps 748 mmHg 74%
    02:00 +14°C° 0 mm 2 mps 748 mmHg 74%
    03:00 +14°C° 0 mm 2 mps 748 mmHg 74%
    04:00 +14°C° 0 mm 1 mps 748 mmHg 75%
    05:00 +13°C° 0.3 mm 2 mps 748 mmHg 79%
    06:00 +13°C° 0.3 mm 2 mps 748 mmHg 84%
    07:00 +13°C° 0.3 mm 2 mps 748 mmHg 88%
    08:00 +13°C° 0.2 mm 2 mps 749 mmHg 89%
    09:00 +13°C° 0.2 mm 2 mps 749 mmHg 90%
    10:00 +14°C° 0.2 mm 2 mps 749 mmHg 91%
    11:00 +13°C° 0.3 mm 3 mps 749 mmHg 91%
    12:00 +13°C° 0.3 mm 3 mps 749 mmHg 91%
    13:00 +14°C° 0.3 mm 3 mps 748 mmHg 91%
    14:00 +14°C° 0 mm 3 mps 748 mmHg 90%
    15:00 +14°C° 0 mm 3 mps 748 mmHg 90%
    16:00 +14°C° 0 mm 3 mps 748 mmHg 89%
    17:00 +14°C° 0 mm 3 mps 748 mmHg 89%
    18:00 +13°C° 0 mm 3 mps 748 mmHg 88%
    19:00 +14°C° 0 mm 2 mps 748 mmHg 88%
    20:00 +14°C° 0 mm 2 mps 748 mmHg 88%
    21:00 +14°C° 0 mm 2 mps 749 mmHg 87%
    22:00 +14°C° 0 mm 2 mps 749 mmHg 87%
    23:00 +14°C° 0 mm 2 mps 749 mmHg 89%

    9 Junio, Martes

    Tiempo Temperatura Precipitaciones Viento Presión Humedad
    00:00 +13°C° 0 mm 2 mps 749 mmHg 91%
    01:00 +13°C° 0 mm 2 mps 749 mmHg 93%
    02:00 +13°C° 0 mm 2 mps 749 mmHg 94%
    03:00 +13°C° 0 mm 2 mps 748 mmHg 95%
    04:00 +13°C° 0 mm 2 mps 748 mmHg 95%
    05:00 +13°C° 0 mm 2 mps 749 mmHg 95%
    06:00 +14°C° 0 mm 2 mps 749 mmHg 94%
    07:00 +14°C° 0 mm 2 mps 749 mmHg 93%
    08:00 +15°C° 0 mm 2 mps 749 mmHg 91%
    09:00 +15°C° 0 mm 2 mps 749 mmHg 90%
    10:00 +16°C° 0 mm 2 mps 749 mmHg 89%
    11:00 +16°C° 0 mm 2 mps 749 mmHg 88%
    12:00 +17°C° 0 mm 2 mps 749 mmHg 87%
    13:00 +19°C° 0 mm 1 mps 749 mmHg 86%
    14:00 +18°C° 0 mm 2 mps 749 mmHg 86%
    15:00 +19°C° 0 mm 2 mps 749 mmHg 85%
    16:00 +19°C° 0 mm 2 mps 749 mmHg 84%
    17:00 +19°C° 0.4 mm 2 mps 749 mmHg 87%
    18:00 +18°C° 0.4 mm 2 mps 749 mmHg 89%
    19:00 +18°C° 0.4 mm 2 mps 749 mmHg 92%
    20:00 +17°C° 0.4 mm 2 mps 749 mmHg 93%
    21:00 +16°C° 0.4 mm 2 mps 749 mmHg 95%
    22:00 +15°C° 0.4 mm 2 mps 749 mmHg 96%
    23:00 +15°C° 0.1 mm 2 mps 749 mmHg 96%
    Mostrar más